Location: Le Domaine
(47.0333°N, 76.5361°W)
Time: 02:39:09
(UTC-05:00)

S-56A Canister/Altair - Pass Details

Date: 21 November 2019
Orbit: 633 x 2499 km, 38.9° (Epoch: 07 December)

Event Time Altitude Azimuth Distance (km) Brightness Sun altitude
Rises 19:17:25 0° 264° (W) 4,769 12.8 -28.9°
Reaches altitude 10° 19:21:14 10° 258° (WSW) 3,465 11.7 -29.6°
Maximum altitude 19:28:47 41° 193° (SSW) 1,453 8.9 -30.9°
Enters shadow 19:29:08 41° 185° (S) 1,439 8.8 -30.9°
Drops below altitude 10° 19:34:04 10° 124° (ESE) 2,415 - -31.7°
Sets 19:36:18 0° 116° (ESE) 3,197 - -32.1°
